AEOLUS (43600 NORAD) Tracking and Keplerian Element Data

This shows tracking and keplerian element data for the satellite.

Feedback or suggestion? Click here.




ElementValue
Catalog43600
NameAEOLUS
Epoch Orbit28021
Epoch Day176.06914324
Epoch Year2023
RAAN181.3121
Inclination96.7143
Eccentricity0.000646
Argument of Perigee116.4131
Mean Anonmoly243.7806
Mean Motion15.88787417
Decay Rate0.00159833
L11 43600U 18066A 23176.06914324 .00159833 10843-4 57231-3 0 9992
L22 43600 96.7143 181.3121 0006460 116.4131 243.7806 15.88787417280214



Live tracking and technical data element details for AEOLUS (NORAD 43600). AEOLUS can be tracked NOW for your location showing map with azimuth and elevation plus other details from your city location.







IsCatalogInMostPopularTable: catalog: 43600, numindb: 439
Update: records affected: 1



GetName: 43600 AEOLUS

Hit Count: updated at: Fri, 19 Apr 2024 12:40:58 GMT